Cloud_Cover
100 71 53 99 100 100 100 81 100 100 98 100 100 99 99 100 97 77 90 100 100 23 19 93 100 99 98 78 47 30 25 10 5 5 38 43 21 29 34 34 88 100 92 100
100 100 100 100 100 100 100 100 67 92 100 100 100 100 100 100 98 100 100 100 20 21 92 100 100 100 100 100 69 49 16 7 96 58 27 95 69 56 90 64 10 24 100 100
100 100 100 100 100 100 100 100 100 100 100 100 100 100 100 100 100 100 93 7 55 80 100 100 100 100 100 100 100 98 70 68 87 100 68 99 100 100 100 96 98 100 100 100
100 100 100 100 100 100 100 100 100 100 100 100 100 100 100 100 100 88 5 48 19 96 100 100 100 100 100 100 97 86 100 98 88 78 79 100 100 100 100 100 100 100 100 100
76 75 100 100 100 100 100 100 100 100 100 100 100 100 100 100 91 35 54 4 84 100 100 100 100 100 100 100 100 100 100 100 91 99 99 100 100 100 100 100 100 100 100 100
80 95 58 48 58 14 78 100 100 100 100 100 100 100 100 100 100 48 5 37 87 100 100 100 100 100 100 100 100 100 100 100 100 100 100 100 100 100 100 100 100 100 100 100
96 100 78 87 95 71 94 89 96 100 100 100 100 100 100 100 58 6 3 46 98 96 100 100 100 100 100 100 100 100 100 100 100 100 100 99 100 100 100 100 100 100 100 100
89 98 97 76 82 96 100 98 100 100 100 100 100 100 100 82 85 6 5 10 72 79 94 88 100 100 100 100 100 100 100 96 91 92 97 83 66 69 66 33 81 100 100 100
100 98 75 98 88 100 100 100 100 100 100 100 100 100 100 79 83 5 5 5 11 41 98 86 96 100 90 100 100 78 84 100 24 14 6 5 5 5 5 5 5 8 17 51
100 95 58 74 52 79 100 100 100 98 100 100 100 100 100 70 23 7 5 5 5 5 12 87 100 100 100 34 10 5 5 4 5 5 5 5 5 2 5 5 5 17 37 30
100 83 99 64 52 68 85 100 100 100 100 100 100 100 100 96 89 76 43 20 20 5 67 46 10 5 5 18 98 63 5 5 10 15 17 5 0 5 5 4 5 5 5 5
99 43 94 56 40 20 9 65 100 93 88 100 100 100 64 51 59 86 100 100 97 100 90 95 53 5 5 5 58 100 67 44 46 41 28 5 5 5 5 5 5 5 5 5
100 42 30 65 22 5 6 5 26 93 59 92 100 88 100 100 100 100 100 100 100 100 100 100 100 13 5 30 43 72 98 66 34 34 5 5 14 5 5 5 7 5 5 28
100 74 26 65 13 22 100 6 14 56 50 83 98 95 98 100 100 98 89 98 100 100 100 100 100 66 85 82 100 100 100 98 67 14 17 7 9 15 32 51 7 11 5 5
15 88 32 35 5 5 100 26 8 49 47 50 77 90 100 100 88 95 56 69 100 96 100 100 96 87 82 80 96 100 100 100 73 65 75 62 63 80 83 24 12 14 5 5
8 86 100 18 5 5 45 99 59 65 67 100 96 73 99 100 90 32 11 91 97 92 100 100 100 100 100 100 100 100 100 100 99 92 97 95 100 100 100 51 56 10 5 5
12 92 100 100 69 62 34 100 100 100 92 100 100 100 72 71 60 50 46 96 96 100 100 100 100 100 94 100 100 100 100 100 100 100 100 82 100 100 100 99 42 8 5 5
5 12 72 92 82 99 100 100 100 86 59 98 98 100 81 71 77 100 77 100 100 100 100 100 100 100 93 100 100 100 100 100 100 100 100 81 100 100 100 41 44 6 5 5
5 100 100 100 100 100 100 100 100 98 77 82 100 100 100 100 100 100 100 100 100 100 100 100 100 100 100 99 100 100 100 100 100 100 100 96 100 100 100 78 40 27 10 5
28 94 95 83 100 100 100 100 100 100 100 100 100 100 100 100 100 100 100 100 100 100 100 100 100 100 100 100 100 100 100 100 100 100 100 100 100 100 100 35 55 48 5 5
21 62 28 98 100 100 100 100 100 100 100 100 100 100 100 100 100 100 100 100 100 100 100 100 100 100 100 98 100 100 100 100 100 100 100 100 100 100 65 61 67 7 5 5
100 98 100 100 100 100 100 100 100 100 100 100 100 100 100 100 100 100 100 100 100 100 100 100 100 100 100 100 100 100 100 100 100 93 81 100 100 82 83 58 21 18 9 12
100 100 100 100 100 100 100 100 100 100 100 100 100 100 100 100 100 100 100 100 100 100 100 100 100 100 100 100 100 100 100 100 100 100 100 100 100 100 80 51 43 44 11 6
100 100 100 100 100 100 100 100 100 100 100 100 100 100 100 100 100 100 100 100 100 100 100 100 100 91 100 100 100 100 100 100 100 100 100 100 100 74 77 88 53 42 9 11
100 100 100 100 100 100 100 100 100 100 100 100 100 100 100 100 100 100 100 100 100 100 100 100 100 100 100 100 100 100 100 100 99 100 94 99 100 78 81 81 40 22 56 94
100 100 100 100 97 88 93 100 100 100 100 100 100 100 100 100 100 100 100 100 100 100 100 100 100 100 100 100 100 100 100 100 100 100 96 100 96 100 86 73 70 55 76 100
14 27 27 33 68 86 60 21 90 100 100 95 60 98 100 100 100 100 100 100 100 100 100 100 100 100 98 99 100 100 100 100 100 100 100 91 78 85 100 93 84 100 100 100